[[{"header":{"parameterUnit":"m.s-1","parameterCategory":1,"la1":30.2991,"la2":30.254,"lo1":-89.0895,"lo2":-89.0444,"dy":0.0017,"dx":0.0017,"nx":28,"ny":28,"refTime":"2023-07-27T03:00:00:Z","depth":0,"parameterNumber":2,"parameterNumberName":"U-component_of_WINDS"},"data":[0,0,0,0,0,0,0,0,0,0,0,0,0,0,0,0,0,0,0,0,0,0,0,0,0,0,0,0,0,0,0,0,0,0,0,0,0,0,0,0,0,0,0,0,0,0,0,0,0,0,0,0,0,0,0,0,0,0,0.9769,0.977,0,0.98,0.9801,0.9801,0.9774,0.9773,0.9772,0.9771,0.9803,0.9804,0.9806,0,0,0,0,0,0,0,0,0,0,0,0,0,0.9686,0.9687,0.9769,0.977,0.977,0.98,0.9801,0.9801,0.9774,0.9773,0.9772,0.977,0.9802,0.9804,0.9806,0,0,0,0,0,0,0,0,0,0,0,0,0,0.972,0.9688,0.9769,0.976,0.976,0.98,0.9801,0.9801,0.9775,0.9773,0.9771,0.977,0.9801,0.9804,0.9807,0.9857,0,0,0.9815,0.9817,0,0,0,0,0,0,0,0,0.9718,0.9723,0.9761,0.9761,0.9761,0.9782,0.9783,0.982,0.9775,0.9769,0.9771,0.9769,0.9797,0.98,0.9809,0.9859,0.986,0.9816,0.9817,0.9818,0.9819,0,0,0,0,0,0,0,0.9716,0.9722,0.9781,0.9762,0.9761,0.9755,0.9758,0.979,0.9792,0.9769,0.9768,0.9772,0.9796,0.9807,0.981,0.9861,0.9815,0.9818,0.982,0.9821,0.9952,0.9953,0,0,0,0,0,0,0.9714,0.972,0.978,0.9782,0.9735,0.9757,0.9761,0.9777,0.9791,0.9792,0.9773,0.977,0.9803,0.9807,0.9811,0.987,0.9818,0.9821,0.9823,0.995,0.9952,0.9954,0,0,0,0,0,0,0.9713,0.972,0.9779,0.9751,0.9758,0.9761,0.9779,0.9778,0.9788,0.9794,0.9794,0.9783,0.9802,0.9807,0.9846,0.9871,0.9822,0.9825,0.9948,0.9951,0.9953,0.9989,0,0,0,0,0,0,0.971,0.972,0.9739,0.9751,0.9759,0.9814,0.978,0.978,0.9793,0.979,0.9804,0.9805,0.9801,0.9842,0.9848,0.9874,0.9827,0.9946,0.9949,0.9952,0.9986,0.9993,0.9999,0,0,0,0,0,0.9708,0.9748,0.974,0.9748,0.9784,0.9815,0.982,0.9815,0.9796,0.9815,0.9818,0.9804,0.9867,0.9846,0.9853,0.988,0.9944,0.9948,0.9952,0.9983,0.9992,0.9999,0,0,0,0,0,0,0.9739,0.975,0.9741,0.9787,0.98,0.9811,0.9835,0.9824,0.9843,0.9839,0.9832,0.9836,0.9876,0.9882,0.9858,0.9929,0.9902,0.9908,0.9924,0.9932,0.9938,0.9935,0.9829,0,0,0,0,0,0.9751,0.9776,0.9784,0.9824,0.9831,0.9832,0.9845,0.984,0.9854,0.986,0.9866,0.988,0.9902,0.9918,0.9939,0.9987,0.9989,1.0009,1.0016,1.0021,1.0026,1.005,1.0059,0.9967,0.9967,0.9967,0,0,0.9776,0.9785,0.9802,0.983,0.984,0.9866,0.9837,0.9865,0.9884,0.9864,0.99,0.9906,0.992,0.9964,0.9983,0.997,1.0052,1.0026,1.003,1.0032,1.0055,1.0064,1.0072,0.997,0.997,0.9969,0,0,0.9835,0.9845,0.9879,0.9889,0.9905,0.9905,0.9913,0.9925,0.9928,0.9965,0.995,0.9972,1.0012,1.0023,1.0033,1.0096,1.0084,1.0104,1.0137,1.0162,1.0169,1.0175,1.0197,1.0205,1.0109,1.0109,1.0109,0,0.9865,0.9903,0.9897,0.9927,0.9939,0.9923,0.9956,0.9967,0.9988,0.9997,0.9982,1.0031,1.004,1.0085,1.0101,1.011,1.0119,1.0102,1.0168,1.0175,1.0181,1.0201,1.0209,1.0111,1.0111,1.011,1.011,0,0.9938,0.9965,0.999,1.0011,1.0027,1.0058,1.0057,1.0073,1.0067,1.0069,1.0106,1.0116,1.0139,1.0149,1.0144,1.0194,1.0185,1.017,1.0142,1.0192,1.0211,1.0218,1.0114,1.0113,1.0113,1.0112,0,0,1.0016,1.0034,1.0044,1.0053,1.0068,1.0089,1.0119,1.0142,1.0155,1.0171,1.0196,1.023,1.0215,1.0228,1.0223,1.0245,1.0292,1.0226,1.0226,1.0237,1.0347,1.0357,1.0367,1.0285,1.0286,1.0287,1.0345,0,1.0075,1.0128,1.0124,1.0174,1.0198,1.0183,1.0209,1.0222,1.0224,1.0245,1.0247,1.0271,1.0251,1.0258,1.0279,1.0282,1.0314,1.0278,1.0307,1.0308,1.0302,1.0377,1.0388,1.0442,1.0353,1.0354,1.0355,0,1.015,1.0168,1.0221,1.0233,1.0243,1.0266,1.0286,1.0306,1.032,1.032,1.0334,1.0326,1.0356,1.0329,1.037,1.0345,1.0357,1.036,1.0362,1.0364,1.0333,1.0379,1.046,1.0467,1.0367,1.0366,1.0365,0,1.0201,1.0238,1.0274,1.0283,1.0298,1.0315,1.0322,1.0334,1.0347,1.0365,1.0373,1.0394,1.0405,1.0421,1.0418,1.0399,1.046,1.0433,1.046,1.046,1.0473,1.0472,1.0555,1.0482,1.0482,1.0482,1.0482,0,1.0266,1.0298,1.0297,1.0319,1.0355,1.035,1.0385,1.039,1.0401,1.0423,1.0412,1.0433,1.0428,1.0449,1.0448,1.0481,1.0487,1.0487,1.0486,1.0487,1.0487,1.0494,1.049,1.0484,1.0484,1.0483,1.0483,0,1.0328,1.0328,1.0366,1.0378,1.0381,1.0407,1.0416,1.0437,1.0439,1.0467,1.0473,1.0476,1.05,1.0499,1.0526,1.0525,1.0566,1.0561,1.0561,1.056,1.0587,1.0584,1.0676,1.0688,1.0609,1.061,1.061,0,1.0368,1.0393,1.0407,1.0421,1.0429,1.0452,1.0466,1.0462,1.0477,1.0494,1.0513,1.0536,1.0554,1.0593,1.0597,1.0617,1.0612,1.0643,1.0615,1.0615,1.0611,1.0609,1.0611,1.0648,1.0649,1.065,1.065,0,1.044,1.0439,1.046,1.0481,1.0497,1.0514,1.0528,1.054,1.0538,1.0555,1.058,1.0594,1.0622,1.0644,1.0664,1.0671,1.066,1.0659,1.0667,1.0668,1.0666,1.0666,1.0575,1.0657,1.0656,1.0656,1.0655,1.0655,1.0492,1.0513,1.0526,1.0549,1.056,1.0574,1.0593,1.0598,1.0618,1.064,1.0637,1.0664,1.0677,1.0702,1.0711,1.0731,1.072,1.0731,1.0734,1.0736,1.0738,1.0664,1.0735,1.0735,1.0735,1.0735,1.0735,0,1.0562,1.057,1.0591,1.0612,1.063,1.0619,1.0635,1.0651,1.0675,1.0688,1.0706,1.0733,1.0755,1.0761,1.0782,1.0798,1.0793,1.0803,1.0801,1.0803,1.0748,1.0739,1.0806,1.0806,1.0806,1.0806,1.0806,1.0806,1.06,1.0635,1.0636,1.0675,1.0682,1.0709,1.0719,1.0731,1.0742,1.0773,1.0792,1.0796,1.0805,1.0827,1.0846,1.0847,1.0855,1.0867,1.0866,1.0814,1.0807,1.08,1.0791,1.0869,1.0869,1.0919,1.0919,1.092]},{"header":{"parameterUnit":"m.s-1","parameterCategory":1,"la1":30.2991,"la2":30.254,"lo1":-89.0895,"lo2":-89.0444,"dy":0.0017,"dx":0.0017,"nx":28,"ny":28,"refTime":"2023-07-27T03:00:00:Z","depth":0,"parameterNumber":3,"parameterNumberName":"V-component_of_WINDS"},"data":[0,0,0,0,0,0,0,0,0,0,0,0,0,0,0,0,0,0,0,0,0,0,0,0,0,0,0,0,0,0,0,0,0,0,0,0,0,0,0,0,0,0,0,0,0,0,0,0,0,0,0,0,0,0,0,0,0,0,3.2446,3.2446,0,3.2388,3.2387,3.2386,3.2334,3.2333,3.2332,3.2332,3.2266,3.2265,3.2264,0,0,0,0,0,0,0,0,0,0,0,0,0,3.2508,3.2508,3.2447,3.2446,3.2445,3.2388,3.2387,3.2386,3.2334,3.2333,3.2332,3.2331,3.2266,3.2265,3.2264,0,0,0,0,0,0,0,0,0,0,0,0,0,3.2469,3.2507,3.2447,3.2412,3.2408,3.2388,3.2387,3.2386,3.2334,3.2333,3.2332,3.2331,3.2267,3.2265,3.2263,3.2271,0,0,3.2258,3.2257,0,0,0,0,0,0,0,0,3.2471,3.2466,3.2418,3.2414,3.241,3.2367,3.2385,3.2347,3.2334,3.2362,3.2332,3.2331,3.23,3.2296,3.2286,3.2268,3.2265,3.2258,3.2257,3.2256,3.2256,0,0,0,0,0,0,0,3.2474,3.2469,3.2423,3.2417,3.2413,3.2398,3.2391,3.2377,3.2337,3.2359,3.2356,3.235,3.2298,3.2288,3.2284,3.2264,3.2258,3.2256,3.2255,3.2255,3.2247,3.2248,0,0,0,0,0,0,3.2483,3.2471,3.2425,3.2421,3.2439,3.2398,3.239,3.2382,3.2337,3.2329,3.235,3.2347,3.2292,3.2287,3.2282,3.2287,3.2256,3.2254,3.2253,3.2247,3.2248,3.2249,0,0,0,0,0,0,3.2484,3.2479,3.2427,3.2445,3.2438,3.2398,3.2389,3.2381,3.2372,3.233,3.2322,3.2348,3.2291,3.2284,3.2274,3.2284,3.2254,3.2252,3.2246,3.2247,3.2248,3.2298,0,0,0,0,0,0,3.2486,3.248,3.2483,3.2446,3.2437,3.2422,3.2389,3.2381,3.2369,3.2365,3.2326,3.2319,3.229,3.2277,3.2272,3.2281,3.2251,3.2244,3.2246,3.2248,3.2295,3.2301,3.2305,0,0,0,0,0,3.2489,3.2499,3.2484,3.2479,3.2441,3.2423,3.2418,3.2386,3.237,3.2373,3.2346,3.232,3.2284,3.2277,3.2271,3.2279,3.2244,3.2246,3.2248,3.2293,3.23,3.2305,0,0,0,0,0,0,3.2536,3.2493,3.2476,3.2475,3.2453,3.2414,3.2416,3.2394,3.2375,3.2371,3.233,3.2322,3.2316,3.2296,3.2289,3.2283,3.226,3.2261,3.2296,3.2303,3.2308,3.2312,3.2249,0,0,0,0,0,3.2547,3.2538,3.25,3.2502,3.2493,3.2457,3.2448,3.2425,3.24,3.239,3.2363,3.2338,3.2321,3.2311,3.2293,3.2292,3.2282,3.2295,3.23,3.2304,3.2305,3.2303,3.2307,3.2255,3.2255,3.2255,0,0,3.2569,3.2544,3.254,3.2511,3.2492,3.2482,3.2449,3.244,3.2431,3.2388,3.2377,3.2356,3.2326,3.2321,3.2317,3.2304,3.2318,3.2307,3.2311,3.2309,3.2305,3.231,3.2315,3.2256,3.2256,3.2256,0,0,3.2603,3.2584,3.2583,3.2565,3.2537,3.2513,3.2513,3.2477,3.2462,3.2451,3.2419,3.2407,3.2379,3.2359,3.2345,3.2372,3.2346,3.2367,3.2393,3.2391,3.2395,3.2399,3.2408,3.2411,3.2368,3.2368,3.2368,0,3.2632,3.2618,3.2585,3.2578,3.2566,3.2529,3.2527,3.251,3.2477,3.2469,3.2456,3.242,3.2397,3.2386,3.2393,3.2383,3.238,3.2371,3.2398,3.2401,3.2404,3.2411,3.2415,3.2371,3.2371,3.237,3.237,0,3.2655,3.2645,3.2648,3.2619,3.2607,3.2603,3.2569,3.256,3.2539,3.2516,3.2504,3.2476,3.2451,3.2447,3.2425,3.2433,3.2426,3.2406,3.2381,3.2412,3.2418,3.2421,3.2375,3.2374,3.2373,3.2372,0,0,3.2716,3.2671,3.2672,3.2658,3.2625,3.2616,3.2609,3.2587,3.258,3.2559,3.2551,3.2529,3.2511,3.2495,3.247,3.2468,3.2491,3.2448,3.2447,3.2457,3.2496,3.2511,3.2515,3.2474,3.2475,3.2475,3.2498,0,3.2744,3.2732,3.2704,3.27,3.269,3.2655,3.2649,3.2627,3.2605,3.2592,3.2567,3.2552,3.2529,3.2519,3.2516,3.2489,3.2498,3.2487,3.2465,3.2465,3.2473,3.2518,3.2534,3.2557,3.2501,3.2501,3.2501,0,3.2775,3.2757,3.2753,3.2721,3.2715,3.2711,3.2688,3.2677,3.2651,3.2635,3.2618,3.2591,3.2581,3.256,3.2544,3.2537,3.2526,3.2512,3.2512,3.2508,3.2484,3.2515,3.2564,3.2567,3.2505,3.2505,3.2505,0,3.2819,3.2794,3.2789,3.2778,3.274,3.2738,3.2721,3.2694,3.2683,3.2663,3.2655,3.2633,3.262,3.2603,3.2571,3.2559,3.2558,3.2534,3.2543,3.2544,3.2544,3.2544,3.2592,3.2539,3.2539,3.2539,3.2539,0,3.2852,3.2851,3.2809,3.2805,3.2802,3.2769,3.2766,3.2746,3.2723,3.2713,3.2681,3.2672,3.263,3.2617,3.2591,3.2581,3.2576,3.2562,3.2555,3.2564,3.2566,3.2556,3.2553,3.254,3.254,3.2539,3.2539,0,3.2901,3.2873,3.2864,3.2829,3.2821,3.282,3.2789,3.2783,3.276,3.2749,3.2744,3.2707,3.2689,3.2656,3.2628,3.2611,3.2606,3.2594,3.2616,3.2611,3.2622,3.2621,3.2664,3.2667,3.2613,3.2614,3.2614,0,3.2924,3.2923,3.2888,3.2881,3.2866,3.2854,3.2843,3.2809,3.2799,3.2769,3.2767,3.2747,3.2729,3.2702,3.2671,3.2649,3.2636,3.2653,3.2632,3.2642,3.2635,3.2636,3.2635,3.2657,3.2658,3.2658,3.2659,0,3.2967,3.2954,3.294,3.2921,3.2909,3.2892,3.2873,3.2868,3.283,3.282,3.2802,3.2789,3.2761,3.2741,3.2715,3.2696,3.267,3.2666,3.2666,3.2676,3.2688,3.2681,3.2627,3.2664,3.2664,3.2664,3.2663,3.2663,3.3003,3.3,3.2976,3.2961,3.2944,3.2927,3.2921,3.2897,3.2883,3.2859,3.284,3.2824,3.2797,3.276,3.2742,3.2727,3.2715,3.2717,3.2717,3.2718,3.2721,3.2691,3.2723,3.2722,3.2722,3.2722,3.2722,0,3.3044,3.3027,3.3014,3.299,3.2978,3.2958,3.2936,3.2927,3.2914,3.2892,3.2876,3.2855,3.2836,3.2804,3.2782,3.2776,3.2764,3.2771,3.2771,3.2767,3.2734,3.2735,3.2782,3.2782,3.2782,3.2782,3.2782,3.2782,3.3064,3.3058,3.3041,3.3026,3.3008,3.2994,3.2983,3.2967,3.2949,3.2929,3.2913,3.2894,3.2867,3.2843,3.2823,3.2814,3.2807,3.2818,3.2805,3.2775,3.2769,3.2764,3.2765,3.2817,3.2817,3.2839,3.284,3.284]}]]